N1NSI Weather Reports


Display with metric or nautical units.
time (UTC)temp
F
wind
direction
speed
MPH
gust
MPH
rain 1hr
in
rain 24hr
in
rain mn
in
humidity
%
barometer
mb
20190123155504 24 37 0.0 1.0 0.00 0.00 0.00 48 1022.1
20190123155004 24 0 0.0 0.0 0.00 0.00 0.00 49 1022.1
20190123154504 24 0 0.0 0.0 0.00 0.00 0.00 49 1022.1
20190123154004 23 0 0.0 0.0 0.00 0.00 0.00 50 1022.1
20190123153504 23 0 0.0 0.0 0.00 0.00 0.00 51 1022.1
20190123153005 22 0 0.0 0.0 0.00 0.00 0.00 50 1022.1
20190123152504 22 0 0.0 0.0 0.00 0.00 0.00 49 1022.5
20190123152004 22 0 0.0 0.0 0.00 0.00 0.00 49 1022.5
20190123151503 22 0 0.0 0.0 0.00 0.00 0.00 48 1022.5
20190123151004 21 0 0.0 0.0 0.00 0.00 0.00 48 1023.0
20190123150504 21 0 0.0 0.0 0.00 0.00 0.00 48 1023.0
20190123150004 21 0 0.0 0.0 0.00 0.00 0.00 48 1023.0
20190123145504 20 0 0.0 0.0 0.00 0.00 0.00 48 1023.3
20190123145004 20 0 0.0 0.0 0.00 0.00 0.00 48 1023.2
20190123144504 20 0 0.0 0.0 0.00 0.00 0.00 48 1023.2
20190123144004 20 0 0.0 0.0 0.00 0.00 0.00 48 1023.4
20190123143504 20 0 0.0 0.0 0.00 0.00 0.00 48 1023.4
20190123143004 19 0 0.0 0.0 0.00 0.00 0.00 48 1023.4
20190123142504 19 37 0.0 1.0 0.00 0.00 0.00 49 1023.7
20190123142004 19 36 0.0 1.0 0.00 0.00 0.00 49 1023.7
20190123141505 19 37 0.0 2.0 0.00 0.00 0.00 49 1023.7
20190123141004 18 37 0.0 2.0 0.00 0.00 0.00 49 1024.1
20190123140505 18 37 0.0 1.0 0.00 0.00 0.00 51 1024.1
20190123140004 18 36 0.0 1.0 0.00 0.00 0.00 52 1024.1
20190123135504 18 36 0.0 1.0 0.00 0.00 0.00 52 1024.3
20190123135004 17 36 0.0 1.0 0.00 0.00 0.00 53 1024.3
20190123134505 17 35 0.0 1.0 0.00 0.00 0.00 52 1024.3
20190123134005 17 35 0.0 1.0 0.00 0.00 0.00 53 1024.5
20190123133504 16 0 0.0 0.0 0.00 0.00 0.00 53 1024.5
20190123133005 16 0 0.0 0.0 0.00 0.00 0.00 53 1024.5
20190123132504 16 37 0.0 1.0 0.00 0.00 0.00 54 1024.9
20190123132006 16 37 0.0 1.0 0.00 0.00 0.00 54 1024.9
20190123131505 16 37 0.0 1.0 0.00 0.00 0.00 54 1024.9
20190123131004 15 37 0.0 1.0 0.00 0.00 0.00 54 1025.5
20190123130504 15 0 0.0 0.0 0.00 0.00 0.00 54 1025.5
20190123130004 15 0 0.0 0.0 0.00 0.00 0.00 54 1025.5
20190123125504 15 0 0.0 0.0 0.00 0.00 0.00 54 1025.3
20190123125004 15 0 0.0 0.0 0.00 0.00 0.00 54 1025.3
20190123124504 15 0 0.0 0.0 0.00 0.00 0.00 55 1025.3
20190123124004 15 0 0.0 0.0 0.00 0.00 0.00 55 1025.2
20190123123504 15 0 0.0 0.0 0.00 0.00 0.00 55 1025.2
20190123123005 15 0 0.0 0.0 0.00 0.00 0.00 55 1025.2
20190123122504 15 0 0.0 0.0 0.00 0.00 0.00 55 1025.0
20190123122004 15 0 0.0 0.0 0.00 0.00 0.00 55 1025.0
20190123121504 15 0 0.0 0.0 0.00 0.00 0.00 55 1025.0
20190123121004 14 0 0.0 0.0 0.00 0.00 0.00 55 1024.9
20190123120504 14 0 0.0 0.0 0.00 0.00 0.00 55 1024.9
20190123120005 14 0 0.0 0.0 0.00 0.00 0.00 55 1024.9
20190123115504 14 0 0.0 0.0 0.00 0.00 0.00 55 1025.4
20190123115004 14 0 0.0 0.0 0.00 0.00 0.00 56 1025.3
20190123114504 14 0 0.0 0.0 0.00 0.00 0.00 56 1025.6
20190123114004 14 0 0.0 0.0 0.00 0.00 0.00 56 1025.6
20190123113504 14 0 0.0 0.0 0.00 0.00 0.00 56 1025.6
20190123113004 14 0 0.0 0.0 0.00 0.00 0.00 56 1025.6
20190123112504 14 0 0.0 0.0 0.00 0.00 0.00 56 1025.8
20190123112005 14 0 0.0 0.0 0.00 0.00 0.00 55 1025.7
20190123111506 14 0 0.0 0.0 0.00 0.00 0.00 55 1025.7
20190123111005 14 0 0.0 0.0 0.00 0.00 0.00 55 1025.9
20190123110513 14 0 0.0 0.0 0.00 0.00 0.00 55 1025.9
20190123110020 14 0 0.0 0.0 0.00 0.00 0.00 55 1025.9
20190123105514 14 0 0.0 0.0 0.00 0.00 0.00 55 1026.4
20190123105006 13 0 0.0 0.0 0.00 0.00 0.00 55 1026.4
20190123104520 13 0 0.0 0.0 0.00 0.00 0.00 56 1026.4
20190123104006 13 0 0.0 0.0 0.00 0.00 0.00 56 1026.9
20190123103512 13 0 0.0 0.0 0.00 0.00 0.00 55 1026.9
20190123103020 13 0 0.0 0.0 0.00 0.00 0.00 56 1026.9
20190123102513 13 0 0.0 0.0 0.00 0.00 0.00 56 1027.1
20190123102005 13 0 0.0 0.0 0.00 0.00 0.00 56 1027.1
20190123101505 13 0 0.0 0.0 0.00 0.00 0.00 56 1027.1
20190123101005 13 0 0.0 0.0 0.00 0.00 0.00 56 1027.1
20190123100505 13 0 0.0 0.0 0.00 0.00 0.00 56 1027.1
20190123100005 13 0 0.0 0.0 0.00 0.00 0.00 57 1027.1
20190123095505 13 0 0.0 0.0 0.00 0.00 0.00 57 1027.5
20190123095005 13 0 0.0 0.0 0.00 0.00 0.00 57 1027.5
20190123094505 13 0 0.0 0.0 0.00 0.00 0.00 57 1027.5
20190123094005 12 0 0.0 0.0 0.00 0.00 0.00 58 1027.9
20190123093505 12 0 0.0 0.0 0.00 0.00 0.00 59 1027.9
20190123093005 12 0 0.0 0.0 0.00 0.00 0.00 59 1027.9
20190123092505 12 0 0.0 0.0 0.00 0.00 0.00 59 1028.0
20190123092005 12 0 0.0 0.0 0.00 0.00 0.00 59 1028.0
20190123091505 12 0 0.0 0.0 0.00 0.00 0.00 59 1028.0
20190123091004 12 0 0.0 0.0 0.00 0.00 0.00 59 1028.0
20190123090505 12 0 0.0 0.0 0.00 0.00 0.00 60 1028.0
20190123090004 12 0 0.0 0.0 0.00 0.00 0.00 60 1028.1
20190123085505 12 0 0.0 0.0 0.00 0.00 0.00 59 1028.3
20190123085004 12 32 0.0 1.0 0.00 0.00 0.00 59 1028.3
20190123084504 12 30 0.0 1.0 0.00 0.00 0.00 59 1028.3
20190123084005 11 352 0.0 1.0 0.00 0.00 0.00 60 1028.8
20190123083505 11 329 0.0 1.0 0.00 0.00 0.00 60 1028.8
20190123083004 11 297 0.0 1.0 0.00 0.00 0.00 59 1028.8
20190123082503 11 297 0.0 1.0 0.00 0.00 0.00 58 1029.2
20190123082005 11 297 0.0 1.0 0.00 0.00 0.00 59 1029.2
20190123081504 11 0 0.0 0.0 0.00 0.00 0.00 58 1029.2
20190123081005 11 0 0.0 0.0 0.00 0.00 0.00 58 1029.4
20190123080504 11 0 0.0 0.0 0.00 0.00 0.00 58 1029.4
20190123080005 11 0 0.0 0.0 0.00 0.00 0.00 57 1029.4
20190123075504 11 0 0.0 0.0 0.00 0.00 0.00 57 1029.5
20190123075004 11 0 0.0 0.0 0.00 0.00 0.00 57 1029.5
20190123074504 11 0 0.0 0.0 0.00 0.00 0.00 58 1029.5
20190123074004 12 0 0.0 0.0 0.00 0.00 0.00 58 1029.8
20190123073504 12 0 0.0 0.0 0.00 0.00 0.00 58 1029.8
20190123073004 12 0 0.0 0.0 0.00 0.00 0.00 57 1029.8
20190123072504 12 0 0.0 0.0 0.00 0.00 0.00 57 1030.1
20190123072005 12 0 0.0 0.0 0.00 0.00 0.00 57 1030.1
20190123071505 12 0 0.0 0.0 0.00 0.00 0.00 57 1030.1
20190123071004 12 0 0.0 0.0 0.00 0.00 0.00 57 1030.1
20190123070504 12 0 0.0 0.0 0.00 0.00 0.00 56 1030.1
20190123070004 12 0 0.0 0.0 0.00 0.00 0.00 56 1030.1
20190123065504 12 0 0.0 0.0 0.00 0.00 0.00 57 1030.5
20190123065004 12 0 0.0 0.0 0.00 0.00 0.00 56 1030.5
20190123064504 12 0 0.0 0.0 0.00 0.00 0.00 56 1030.5
20190123064004 12 0 0.0 0.0 0.00 0.00 0.00 56 1030.8
20190123063505 12 0 0.0 0.0 0.00 0.00 0.00 56 1030.8
20190123063006 12 0 0.0 0.0 0.00 0.00 0.00 55 1030.8
20190123062504 13 0 0.0 0.0 0.00 0.00 0.00 54 1031.0
20190123062004 13 0 0.0 0.0 0.00 0.00 0.00 54 1031.0
20190123061504 13 0 0.0 0.0 0.00 0.00 0.00 55 1031.0
20190123061004 13 0 0.0 0.0 0.00 0.00 0.00 54 1031.2
20190123060504 13 0 0.0 0.0 0.00 0.00 0.00 54 1031.2
20190123060004 13 0 0.0 0.0 0.00 0.00 0.00 54 1031.2
20190123055504 13 0 0.0 0.0 0.00 0.00 0.00 55 1031.4
20190123055004 13 0 0.0 0.0 0.00 0.00 0.00 55 1031.4
20190123054504 13 0 0.0 0.0 0.00 0.00 0.00 54 1031.4
20190123054004 13 0 0.0 0.0 0.00 0.00 0.00 54 1031.6
20190123053504 14 0 0.0 0.0 0.00 0.00 0.00 53 1031.6
20190123053004 14 0 0.0 0.0 0.00 0.00 0.00 53 1031.6
20190123052504 14 0 0.0 0.0 0.00 0.00 0.00 53 1031.8
20190123052005 14 0 0.0 0.0 0.00 0.00 0.00 53 1031.8
20190123051504 14 0 0.0 0.0 0.00 0.00 0.00 52 1031.8
20190123051005 14 0 0.0 0.0 0.00 0.00 0.00 52 1032.3
20190123050504 14 0 0.0 0.0 0.00 0.00 0.00 54 1032.3
20190123050006 14 0 0.0 0.0 0.00 0.00 0.00 54 1032.2
20190123045504 14 0 0.0 0.0 0.00 0.00 0.00 54 1032.8
20190123045005 15 0 0.0 0.0 0.00 0.00 0.00 54 1032.8
20190123044504 15 0 0.0 0.0 0.00 0.00 0.00 55 1032.8
20190123044005 15 0 0.0 0.0 0.00 0.00 0.00 55 1032.8
20190123043504 15 0 0.0 0.0 0.00 0.00 0.00 55 1032.8
20190123043004 15 0 0.0 0.0 0.00 0.00 0.00 56 1032.8
20190123042504 14 0 0.0 0.0 0.00 0.00 0.00 54 1032.7
20190123042004 14 0 0.0 0.0 0.00 0.00 0.00 54 1032.7
20190123041505 14 0 0.0 0.0 0.00 0.00 0.00 54 1032.7
20190123041004 14 0 0.0 0.0 0.00 0.00 0.00 54 1033.0
20190123040504 14 0 0.0 0.0 0.00 0.00 0.00 55 1033.0
20190123040004 14 0 0.0 0.0 0.00 0.00 0.00 56 1033.1
20190123035504 14 0 0.0 0.0 0.00 0.00 0.00 55 1033.1
20190123035004 14 0 0.0 0.0 0.00 0.00 0.00 55 1033.1
20190123034504 14 0 0.0 0.0 0.00 0.00 0.00 56 1033.1
20190123034004 14 0 0.0 0.0 0.00 0.00 0.00 56 1032.8
20190123033504 14 0 0.0 0.0 0.00 0.00 0.00 55 1032.8
20190123033004 14 0 0.0 0.0 0.00 0.00 0.00 56 1032.8
20190123032504 14 0 0.0 0.0 0.00 0.00 0.00 56 1032.7
20190123032004 14 0 0.0 0.0 0.00 0.00 0.00 55 1032.7
20190123031505 14 0 0.0 0.0 0.00 0.00 0.00 54 1032.7
20190123031004 14 0 0.0 0.0 0.00 0.00 0.00 53 1032.7
20190123030504 14 0 0.0 0.0 0.00 0.00 0.00 53 1032.7
20190123030004 14 0 0.0 0.0 0.00 0.00 0.00 51 1032.7
20190123025504 14 0 0.0 0.0 0.00 0.00 0.00 52 1032.7
20190123025004 14 0 0.0 0.0 0.00 0.00 0.00 52 1032.7
20190123024504 14 0 0.0 0.0 0.00 0.00 0.00 52 1032.7
20190123024004 14 0 0.0 0.0 0.00 0.00 0.00 51 1033.1
20190123023503 14 0 0.0 0.0 0.00 0.00 0.00 52 1033.1
20190123023004 14 0 0.0 0.0 0.00 0.00 0.00 49 1033.1
20190123022503 14 0 0.0 0.0 0.00 0.00 0.00 49 1032.9
20190123022005 14 0 0.0 0.0 0.00 0.00 0.00 49 1032.9
20190123021504 14 0 0.0 0.0 0.00 0.00 0.00 51 1032.9
20190123021005 14 0 0.0 0.0 0.00 0.00 0.00 51 1032.9
20190123020505 14 0 0.0 0.0 0.00 0.00 0.00 49 1032.9
20190123020005 14 0 0.0 0.0 0.00 0.00 0.00 50 1032.8
20190123015504 14 0 0.0 0.0 0.00 0.00 0.00 50 1033.2
20190123015005 14 0 0.0 0.0 0.00 0.00 0.00 50 1033.2
20190123014504 14 0 0.0 0.0 0.00 0.00 0.00 50 1033.2
20190123014005 14 0 0.0 0.0 0.00 0.00 0.00 50 1033.2
20190123013505 14 0 0.0 0.0 0.00 0.00 0.00 49 1033.2
20190123013004 14 0 0.0 0.0 0.00 0.00 0.00 47 1033.2
20190123012505 14 0 0.0 0.0 0.00 0.00 0.00 47 1033.3
20190123012004 14 0 0.0 0.0 0.00 0.00 0.00 45 1033.3
20190123011505 14 0 0.0 0.0 0.00 0.00 0.00 44 1033.3
20190123011005 14 0 0.0 0.0 0.00 0.00 0.00 45 1033.5
20190123010505 14 0 0.0 0.0 0.00 0.00 0.00 45 1033.5
20190123010004 13 0 0.0 0.0 0.00 0.00 0.00 43 1033.4
20190123005505 13 0 0.0 0.0 0.00 0.00 0.00 45 1033.4
20190123005005 13 0 0.0 0.0 0.00 0.00 0.00 46 1033.4
20190123004504 13 0 0.0 0.0 0.00 0.00 0.00 45 1033.4
20190123004004 13 0 0.0 0.0 0.00 0.00 0.00 43 1033.3
20190123003504 13 0 0.0 0.0 0.00 0.00 0.00 43 1033.3
20190123003004 13 0 0.0 0.0 0.00 0.00 0.00 44 1033.7
20190123002504 13 0 0.0 0.0 0.00 0.00 0.00 46 1033.7
20190123002004 13 0 0.0 0.0 0.00 0.00 0.00 45 1033.7
20190123001504 13 0 0.0 0.0 0.00 0.00 0.00 42 1033.7
20190123001004 13 0 0.0 0.0 0.00 0.00 0.00 43 1033.7
20190123000504 13 0 0.0 0.0 0.00 0.00 0.00 44 1033.7
20190123000006 13 0 0.0 0.0 0.00 0.00 0.00 45 1033.6
20190122235504 13 0 0.0 0.0 0.00 0.00 0.00 44 1033.5
20190122235004 13 0 0.0 0.0 0.00 0.00 0.00 44 1033.5
20190122234504 13 297 0.0 1.0 0.00 0.00 0.00 44 1033.5
20190122234003 13 297 0.0 1.0 0.00 0.00 0.00 45 1033.7
20190122233504 13 0 0.0 0.0 0.00 0.00 0.00 44 1033.7
20190122233003 13 0 0.0 0.0 0.00 0.00 0.00 41 1033.7
20190122232504 13 0 0.0 0.0 0.00 0.00 0.00 41 1033.8
20190122232004 13 0 0.0 0.0 0.00 0.00 0.00 39 1033.8
20190122231505 14 0 0.0 0.0 0.00 0.00 0.00 36 1033.8
20190122231004 14 0 0.0 0.0 0.00 0.00 0.00 36 1033.8
20190122230505 14 0 0.0 0.0 0.00 0.00 0.00 35 1033.9
20190122230004 15 0 0.0 0.0 0.00 0.00 0.00 33 1033.9
20190122225505 15 0 0.0 0.0 0.00 0.00 0.00 34 1033.8
20190122225004 16 0 0.0 0.0 0.00 0.00 0.00 32 1033.8
20190122224505 16 0 0.0 0.0 0.00 0.00 0.00 32 1033.8
20190122224004 16 0 0.0 0.0 0.00 0.00 0.00 33 1033.3
20190122223505 16 0 0.0 0.0 0.00 0.00 0.00 28 1033.3
20190122223004 16 0 0.0 0.0 0.00 0.00 0.00 29 1033.3
20190122222504 17 0 0.0 0.0 0.00 0.00 0.00 30 1033.2
20190122222004 17 0 0.0 0.0 0.00 0.00 0.00 31 1033.2
20190122221504 17 0 0.0 0.0 0.00 0.00 0.00 29 1033.2
20190122221004 18 0 0.0 0.0 0.00 0.00 0.00 29 1033.0
20190122220504 18 0 0.0 0.0 0.00 0.00 0.00 25 1033.0
20190122220005 19 297 0.0 1.0 0.00 0.00 0.00 27 1033.0
20190122215504 19 297 0.0 1.0 0.00 0.00 0.00 28 1033.3
20190122215005 19 0 0.0 0.0 0.00 0.00 0.00 25 1033.3
20190122214504 20 0 0.0 0.0 0.00 0.00 0.00 22 1033.3
20190122214004 20 0 0.0 0.0 0.00 0.00 0.00 23 1033.2
20190122213504 20 0 0.0 0.0 0.00 0.00 0.00 24 1033.2
20190122213004 20 297 0.0 1.0 0.00 0.00 0.00 25 1033.2
20190122212504 20 297 0.0 1.0 0.00 0.00 0.00 26 1032.7
20190122212004 20 295 0.0 1.0 0.00 0.00 0.00 26 1032.7
20190122211504 20 296 0.0 1.0 0.00 0.00 0.00 25 1032.7
20190122211004 20 306 0.0 1.0 0.00 0.00 0.00 25 1032.8
20190122210504 21 306 1.0 4.0 0.00 0.00 0.00 28 1032.8
20190122210004 21 307 1.0 4.0 0.00 0.00 0.00 24 1032.8
20190122205504 21 309 1.0 4.0 0.00 0.00 0.00 22 1033.1
20190122205004 21 313 1.0 4.0 0.00 0.00 0.00 21 1033.1
20190122204503 21 322 2.0 7.0 0.00 0.00 0.00 21 1033.1
20190122204004 21 307 1.0 7.0 0.00 0.00 0.00 23 1033.0
20190122203503 21 284 1.0 4.0 0.00 0.00 0.00 25 1033.0
20190122203004 21 297 1.0 4.0 0.00 0.00 0.00 24 1033.0
20190122202503 21 292 1.0 4.0 0.00 0.00 0.00 21 1033.0
20190122202005 21 284 1.0 4.0 0.00 0.00 0.00 24 1033.0
20190122201504 21 291 1.0 2.0 0.00 0.00 0.00 26 1033.0
20190122201005 21 290 1.0 2.0 0.00 0.00 0.00 24 1032.8
20190122200504 21 284 1.0 4.0 0.00 0.00 0.00 22 1032.8
20190122200005 21 267 1.0 6.0 0.00 0.00 0.00 25 1032.8
20190122195504 21 259 1.0 7.0 0.00 0.00 0.00 24 1032.7
20190122195004 21 265 1.0 7.0 0.00 0.00 0.00 24 1032.7
20190122194504 21 273 1.0 6.0 0.00 0.00 0.00 24 1032.7
20190122194004 21 280 1.0 6.0 0.00 0.00 0.00 26 1032.4
20190122193504 20 279 1.0 2.0 0.00 0.00 0.00 26 1032.4
20190122193005 20 256 1.0 4.0 0.00 0.00 0.00 26 1032.4
20190122192504 20 246 1.0 4.0 0.00 0.00 0.00 22 1032.1
20190122192004 20 278 0.0 2.0 0.00 0.00 0.00 26 1032.1
20190122191505 20 278 1.0 2.0 0.00 0.00 0.00 26 1032.1
20190122191004 20 296 1.0 4.0 0.00 0.00 0.00 25 1031.9
20190122190504 20 321 1.0 4.0 0.00 0.00 0.00 24 1031.9
20190122190004 20 325 1.0 4.0 0.00 0.00 0.00 24 1031.9
20190122185504 20 307 1.0 4.0 0.00 0.00 0.00 23 1031.9
20190122185004 20 279 1.0 8.0 0.00 0.00 0.00 25 1031.9
20190122184504 20 265 1.0 8.0 0.00 0.00 0.00 24 1031.9
20190122184004 20 261 1.0 4.0 0.00 0.00 0.00 24 1031.8
20190122183504 19 279 1.0 4.0 0.00 0.00 0.00 20 1031.8
20190122183004 19 291 1.0 4.0 0.00 0.00 0.00 21 1031.8
20190122182504 19 273 1.0 4.0 0.00 0.00 0.00 22 1031.8
20190122182004 19 249 1.0 6.0 0.00 0.00 0.00 24 1031.8
20190122181504 19 262 1.0 6.0 0.00 0.00 0.00 25 1031.8
20190122181004 18 270 1.0 2.0 0.00 0.00 0.00 27 1031.7
20190122180503 18 259 1.0 2.0 0.00 0.00 0.00 24 1031.6
20190122180004 18 251 1.0 2.0 0.00 0.00 0.00 26 1031.6
20190122175504 18 266 1.0 6.0 0.00 0.00 0.00 25 1031.8
20190122175003 17 290 1.0 6.0 0.00 0.00 0.00 24 1031.8
20190122174504 17 297 1.0 6.0 0.00 0.00 0.00 23 1031.8
20190122174003 17 295 1.0 6.0 0.00 0.00 0.00 25 1032.1
20190122173504 16 272 1.0 4.0 0.00 0.00 0.00 25 1032.1
20190122173004 16 259 1.0 4.0 0.00 0.00 0.00 28 1032.1
20190122172503 16 272 1.0 4.0 0.00 0.00 0.00 27 1031.9
20190122172005 16 289 1.0 4.0 0.00 0.00 0.00 25 1031.9
20190122171504 16 277 2.0 4.0 0.00 0.00 0.00 25 1031.9
20190122171005 16 274 2.0 8.0 0.00 0.00 0.00 26 1032.0
20190122170504 16 274 2.0 8.0 0.00 0.00 0.00 25 1032.0
20190122170005 15 279 1.0 6.0 0.00 0.00 0.00 27 1032.0
20190122165505 15 283 2.0 6.0 0.00 0.00 0.00 27 1032.0
20190122165005 15 287 1.0 6.0 0.00 0.00 0.00 24 1032.0
20190122164504 15 299 0.0 2.0 0.00 0.00 0.00 26 1032.0
20190122164005 15 285 0.0 2.0 0.00 0.00 0.00 28 1031.9
20190122163504 14 278 1.0 2.0 0.00 0.00 0.00 29 1031.9
20190122163004 14 268 1.0 4.0 0.00 0.00 0.00 29 1031.9
20190122162504 14 279 1.0 4.0 0.00 0.00 0.00 29 1032.1
20190122162004 14 283 1.0 4.0 0.00 0.00 0.00 30 1032.1
20190122161505 13 279 1.0 4.0 0.00 0.00 0.00 28 1032.1
20190122161004 13 292 1.0 4.0 0.00 0.00 0.00 28 1032.2
20190122160504 12 311 1.0 4.0 0.00 0.00 0.00 31 1032.2
20190122160005 12 314 1.0 4.0 0.00 0.00 0.00 31 1032.2